Location: Oberkirch
(48.5323°N, 8.0787°E)
Time: 19:40:45
(UTC+00:00)

S-56A Canister/Altair - Pass Details

Date: 22 February 2026
Orbit: 633 x 2484 km, 38.9° (Epoch: 11 March)

Event Time Altitude Azimuth Distance (km) Brightness Sun altitude
Exits shadow 04:38:46 12° 226° (SW) 3,797 10.6 -17.9°
Maximum altitude 04:40:22 12° 216° (SW) 3,877 10.7 -17.7°
Drops below altitude 10° 04:44:20 10° 196° (SSW) 4,347 11.2 -17.0°
Sets 04:51:32 0° 172° (S) 5,755 12.1 -15.8°
